Theta_e
317 313 312 313 314 316 317 318 319 321 321 321 320 320 321 323 323 324 327 330 330 328 327 328 328 330 332 334 332 328 324 324 317 317 318 320 318 321 320 319 319 318 318 317
315 314 315 317 316 316 317 316 317 318 319 320 322 324 322 322 322 323 325 328 329 328 326 326 325 326 327 327 327 325 322 321 317 315 317 319 321 323 323 320 319 320 319 318
315 317 319 318 318 318 316 316 316 317 319 319 320 324 322 322 322 324 324 325 326 326 326 325 325 325 326 326 326 325 320 321 317 316 318 323 327 327 325 319 320 321 319 318
317 318 319 319 319 319 318 319 319 319 319 317 318 318 322 322 322 323 323 324 325 325 325 325 325 326 326 326 326 325 321 321 320 318 318 323 326 326 322 322 323 321 319 318
319 319 318 319 319 320 319 320 318 320 319 317 317 315 317 320 321 321 320 323 325 325 325 325 324 325 325 326 326 326 324 321 322 321 321 326 328 326 323 326 325 323 320 318
317 319 319 319 320 320 320 320 318 317 317 317 316 315 316 318 320 321 322 323 323 324 324 325 324 324 326 326 326 327 326 324 322 322 320 325 324 323 327 325 323 321 319 319
318 319 319 320 319 319 320 319 318 318 317 319 319 318 318 320 321 322 322 324 323 324 324 325 325 327 326 326 326 326 327 327 326 323 321 321 324 324 325 322 322 319 318 319
318 319 319 320 319 318 318 317 318 321 321 320 319 321 322 320 321 322 326 326 324 324 324 323 325 325 324 324 326 327 327 328 328 326 323 327 324 322 322 323 322 318 318 319
325 321 320 320 320 319 319 318 317 319 320 320 320 320 321 321 322 322 325 325 325 325 325 325 325 326 326 328 329 328 328 328 328 327 326 324 322 321 319 319 319 319 319 319
321 325 324 324 324 322 320 320 321 319 319 320 321 321 322 324 323 323 322 323 325 326 326 325 325 326 327 327 328 329 329 328 328 328 327 326 326 323 319 319 320 320 319 318
317 321 324 323 324 323 322 321 320 320 322 324 323 322 324 327 325 324 322 325 325 325 325 324 325 325 327 328 328 329 330 329 328 328 328 326 325 321 319 321 321 320 319 319
309 316 320 321 320 320 321 323 321 321 320 321 321 322 321 324 323 324 325 325 325 324 324 325 325 325 327 329 329 330 330 329 328 327 326 324 322 322 322 322 321 320 320 319
309 311 314 316 317 319 322 322 319 320 324 323 319 321 322 323 323 325 323 324 324 323 324 325 325 325 327 330 329 329 329 328 327 326 325 322 324 326 325 323 321 321 321 320
307 310 311 312 312 311 313 315 316 322 322 324 324 322 321 323 324 322 323 325 324 323 323 324 325 325 326 327 328 327 327 327 326 326 324 325 325 325 324 323 323 322 322 321
306 309 309 308 307 309 310 311 313 314 317 324 323 323 322 322 321 321 322 323 324 324 323 323 324 324 325 325 325 325 324 324 323 324 326 326 326 325 324 323 323 323 322 319
303 305 305 304 305 307 308 309 311 311 312 313 320 321 319 320 319 318 318 320 323 322 322 322 322 323 324 325 325 325 325 325 325 325 326 326 325 324 323 323 323 322 319 317
301 302 303 303 303 305 306 307 309 311 312 313 312 316 317 315 321 317 317 316 316 320 322 323 321 320 323 324 324 325 324 324 325 325 325 325 324 324 323 322 322 319 317 315
301 300 301 303 302 304 304 306 307 308 308 310 310 311 311 314 315 316 315 315 317 318 319 319 322 320 321 320 322 322 324 325 325 326 325 324 323 323 323 322 319 317 316 315
302 302 301 303 304 304 304 304 305 306 306 308 307 308 309 310 312 313 313 313 312 312 313 319 322 322 321 320 320 321 326 325 326 325 324 324 323 323 322 319 317 317 315 314
304 305 303 302 304 302 304 305 305 304 304 305 307 309 309 309 310 313 312 310 310 310 311 314 316 317 319 320 320 321 326 326 325 325 324 323 323 321 318 317 316 315 312 307
303 303 303 302 300 305 305 305 305 307 305 309 309 309 311 311 314 313 312 313 314 315 315 315 316 316 315 316 320 323 326 325 324 324 322 321 320 319 318 316 314 308 305 307
304 305 301 301 299 302 305 305 305 306 306 308 309 309 309 309 309 311 311 313 313 313 314 314 315 315 316 316 317 323 324 324 323 322 321 321 320 318 315 311 306 306 308 307
303 303 302 304 302 304 304 305 306 306 305 304 307 306 307 308 308 308 310 311 311 313 312 312 315 314 314 315 318 323 323 322 321 321 320 319 317 314 308 305 308 307 306 306
303 303 304 303 303 305 304 303 304 305 305 305 304 304 306 307 308 308 308 310 311 311 311 311 311 312 313 318 321 322 321 320 319 319 317 316 313 306 306 307 307 306 305 304
303 303 303 303 302 303 303 304 304 305 304 305 305 305 304 306 308 307 309 309 309 311 311 311 311 311 312 317 319 319 319 318 317 315 313 307 305 307 307 306 305 305 304 303
303 302 303 303 302 303 303 304 304 304 305 305 305 304 303 306 306 307 306 308 309 309 309 311 311 312 312 317 315 316 316 315 313 309 306 306 307 306 305 305 304 303 302 303
Wind_Speed
17 4 8 11 12 11 8 12 11 11 15 12 11 9 16 23 10 14 28 33 39 34 31 33 31 30 28 27 24 24 26 24 23 25 24 22 18 13 11 6 2 4 5 8
7 12 11 13 16 17 16 14 15 11 9 14 18 25 11 17 13 21 25 30 38 36 37 39 37 36 35 34 28 27 29 26 23 24 23 19 15 11 10 7 6 7 6 9
11 11 15 19 17 17 15 16 11 13 17 8 6 19 19 17 17 34 25 40 39 40 41 45 44 42 40 39 36 32 32 29 24 25 25 21 17 17 13 11 11 9 8 11
14 14 18 18 20 15 12 10 13 16 6 7 5 6 6 7 8 5 13 35 38 45 43 49 48 47 45 41 38 32 33 32 28 28 29 25 24 22 17 15 13 10 10 13
19 15 17 17 15 10 9 8 7 6 6 5 15 1 8 8 8 13 11 18 44 45 45 49 54 51 47 44 41 37 33 35 32 31 30 28 27 23 20 17 14 13 10 13
16 24 17 16 16 12 7 5 8 6 3 6 14 7 8 6 12 10 20 31 32 43 40 48 55 53 51 46 43 40 36 35 35 33 33 30 27 24 20 20 20 14 13 13
12 18 19 18 13 11 4 3 3 4 3 8 8 9 14 8 9 9 13 31 38 42 39 39 52 55 52 49 47 45 42 38 36 36 37 34 28 26 23 23 18 15 15 13
10 12 16 20 15 8 7 8 6 8 4 8 7 7 15 14 25 31 2 22 38 44 40 32 42 54 52 53 53 50 46 39 33 34 38 33 32 28 26 24 22 20 18 15
6 21 16 17 17 13 8 11 8 5 5 3 5 9 17 22 12 22 10 18 22 25 23 21 31 43 47 49 52 51 46 40 33 32 30 34 35 32 28 25 23 21 18 19
11 7 7 14 11 14 6 10 4 1 8 9 8 8 9 13 13 9 10 16 21 20 16 14 15 11 16 51 51 47 44 42 37 34 27 21 23 30 29 26 23 21 21 21
9 5 6 8 4 3 3 13 6 5 5 6 3 6 1 4 4 6 7 21 24 19 14 10 8 6 11 24 43 48 44 41 38 31 23 19 19 26 26 23 22 23 21 21
15 5 4 10 21 16 12 4 8 4 7 5 8 11 8 4 1 19 12 22 21 15 15 14 11 7 6 16 37 45 40 38 32 24 17 16 18 21 22 21 21 20 21 23
12 5 6 10 6 7 4 4 7 3 7 9 4 6 2 6 10 17 18 29 14 16 23 22 17 12 13 25 33 31 30 26 23 19 16 18 19 20 21 21 21 22 25 26
15 4 6 6 14 15 15 18 9 3 3 4 9 10 16 9 8 11 25 14 20 24 27 11 19 21 20 22 27 23 22 21 19 17 18 19 19 20 20 21 23 25 27 29
3 4 10 17 20 19 20 20 13 10 5 6 13 13 15 16 7 19 20 16 8 9 14 23 14 9 14 23 22 20 19 20 24 27 26 25 23 22 21 23 24 26 29 31
4 7 12 19 19 18 22 20 15 12 12 14 8 16 1 6 26 31 27 18 14 15 9 15 18 8 9 19 25 26 26 26 24 30 30 26 23 23 22 22 22 28 30 31
10 9 10 18 16 17 13 14 12 12 8 11 10 14 6 6 5 3 18 20 15 8 8 12 14 14 14 18 34 27 26 26 30 33 33 30 27 25 23 22 23 26 29 31
14 11 8 13 10 15 11 10 16 17 14 13 16 13 11 8 5 12 4 13 5 5 8 6 18 11 4 8 20 9 2 21 27 31 29 26 23 20 19 21 25 28 32 36
11 11 4 9 13 14 19 14 13 11 18 9 13 17 24 22 16 5 15 11 9 9 11 8 10 4 3 6 16 9 9 4 23 25 22 21 19 20 22 24 28 32 35 38
8 9 6 5 5 7 5 14 29 18 19 15 11 7 13 21 5 2 16 9 13 13 7 6 4 4 5 5 4 6 3 10 16 17 20 19 19 20 23 27 30 33 35 37
5 5 9 7 4 6 13 16 17 8 7 8 11 13 15 7 3 7 10 9 6 5 3 3 5 6 8 9 8 3 8 14 17 18 16 15 18 21 25 28 30 31 33 32
3 6 3 4 3 10 8 11 6 4 7 11 10 13 15 15 15 10 11 5 5 10 6 4 6 10 10 11 11 6 9 15 17 17 16 18 21 25 26 26 28 27 27 28
7 10 5 5 5 19 32 21 13 11 17 15 14 19 16 16 17 14 10 9 7 4 7 7 9 12 13 13 9 8 15 18 18 17 19 20 23 23 23 23 21 24 23 23
10 17 7 9 11 8 20 28 27 24 25 23 21 19 17 17 16 15 13 9 5 7 6 10 15 18 16 10 8 12 16 18 17 18 19 22 20 19 16 16 19 20 23 27
10 9 14 15 22 19 29 29 31 34 27 20 18 17 19 15 19 18 10 8 11 9 11 12 15 17 19 10 17 18 18 17 17 18 17 13 12 12 14 15 17 22 22 26
14 17 10 13 25 18 28 31 32 30 23 23 26 24 24 17 23 18 13 14 10 12 8 11 14 13 17 16 19 22 19 18 17 13 10 10 11 11 11 17 21 20 24 23
Wind_Direction
232 176 221 238 246 248 249 236 254 226 231 223 264 245 218 236 188 225 174 176 184 188 184 182 185 188 189 195 199 202 200 205 194 187 187 182 187 196 201 218 243 281 323 344
233 231 224 234 243 239 247 255 265 283 268 217 224 232 240 207 223 203 211 189 188 192 185 179 184 189 195 195 201 205 205 210 199 192 192 190 198 196 218 231 257 270 303 330
231 234 233 233 247 249 239 231 248 249 274 267 225 241 241 206 214 225 217 208 199 195 187 182 184 190 193 195 200 206 208 211 202 193 195 190 192 200 216 232 250 261 302 323
247 252 253 251 239 234 253 257 245 240 248 245 157 262 244 188 196 225 214 202 200 202 197 188 188 191 194 199 201 206 209 211 206 198 203 204 205 209 219 227 235 270 306 315
254 254 254 261 263 246 241 275 271 268 248 293 287 95 257 179 208 228 247 225 208 206 201 193 193 196 199 201 203 206 209 214 209 206 205 204 205 213 221 223 240 264 275 294
266 276 267 271 279 254 243 250 293 290 216 248 246 186 253 229 208 218 229 239 220 204 202 200 197 197 197 201 204 206 211 213 214 209 212 213 216 211 209 221 238 252 274 285
270 264 275 276 286 291 183 156 302 311 281 225 235 251 243 259 238 209 221 236 226 209 199 194 191 190 196 200 205 209 210 211 211 208 214 219 212 210 217 232 244 259 271 278
248 269 242 260 254 231 238 175 182 219 219 256 274 258 257 237 261 269 292 268 212 204 195 191 195 195 202 207 205 205 206 209 209 212 213 211 222 220 220 233 247 259 267 279
307 265 261 255 252 244 243 246 210 184 267 296 249 277 262 253 250 243 144 127 132 141 134 130 180 197 194 196 205 205 205 206 209 217 214 219 225 228 233 242 249 257 270 280
338 304 299 300 307 269 188 235 235 264 201 245 258 267 265 312 205 151 126 122 116 117 121 129 136 125 184 201 205 206 206 206 206 213 211 220 233 228 229 240 253 263 273 282
15 341 323 326 248 303 262 271 212 147 178 196 227 262 119 343 55 358 143 133 126 123 124 137 130 136 112 187 202 201 200 201 201 209 212 223 234 220 229 241 250 260 271 285
7 280 272 266 293 303 305 286 349 215 255 204 194 249 276 348 146 231 164 130 138 141 164 146 155 165 124 172 194 194 194 198 197 203 220 227 221 228 239 248 258 275 286 290
354 332 329 330 331 326 298 49 28 123 12 297 177 257 162 355 6 71 64 143 145 139 150 152 157 157 149 164 172 175 185 187 194 201 217 223 231 241 249 258 269 277 283 288
4 314 328 304 316 322 312 317 345 122 143 294 271 315 311 40 11 10 37 61 66 50 54 100 156 159 162 159 166 174 183 184 191 213 223 233 239 248 256 263 267 276 288 295
76 287 317 324 323 318 306 305 315 300 251 166 274 293 298 348 27 4 35 24 92 92 50 37 37 100 162 182 188 185 190 200 207 210 222 229 238 243 246 253 261 277 286 288
283 262 301 301 310 308 306 304 283 283 293 297 231 269 334 350 360 349 352 3 35 45 32 25 6 42 91 33 207 199 201 206 206 208 216 219 220 226 238 249 262 281 291 293
272 268 275 276 291 306 303 281 301 297 290 302 281 276 284 315 117 265 324 331 346 38 250 279 342 351 97 60 15 211 206 211 210 210 213 218 225 226 233 251 275 283 281 282
264 257 261 268 274 268 259 267 282 286 284 285 292 298 314 303 226 176 183 274 305 296 69 189 244 336 342 325 337 357 194 212 208 199 198 204 212 221 240 263 275 274 276 284
235 251 250 251 256 272 272 268 281 290 286 304 316 315 312 324 347 167 109 77 39 22 42 78 92 112 176 243 270 336 3 201 200 186 193 207 216 235 253 267 274 279 284 289
300 220 248 258 254 255 253 250 251 265 273 280 292 327 321 305 304 351 7 334 297 318 336 20 3 315 295 308 308 280 254 230 192 191 208 215 233 256 271 278 282 285 290 293
295 303 220 234 239 261 253 267 299 261 256 326 350 330 338 352 68 27 9 0 34 44 347 293 16 7 320 302 319 318 218 205 202 210 221 236 258 272 278 283 288 291 294 299
317 312 265 262 224 263 243 241 206 173 295 337 334 304 313 319 333 351 355 24 331 9 349 351 344 320 316 304 290 259 227 215 218 226 243 261 275 283 288 289 290 293 302 305
249 215 235 265 245 307 305 300 262 232 258 253 250 281 289 293 295 317 312 330 327 336 348 349 336 328 324 322 292 238 217 228 234 243 255 269 283 284 287 292 297 301 304 305
245 246 243 257 252 256 287 288 291 286 255 256 256 257 272 279 281 283 277 258 283 296 308 315 306 314 328 322 262 229 223 233 245 254 266 280 281 288 293 298 302 301 301 302
249 270 251 257 263 269 264 262 268 270 269 268 232 237 264 259 264 270 274 296 283 269 289 320 305 303 307 284 239 228 235 245 253 264 275 279 285 286 290 293 289 295 294 300
241 247 245 254 259 256 264 263 267 273 272 263 244 237 242 244 257 267 256 243 286 290 259 272 281 296 303 212 220 230 244 254 265 260 260 271 278 292 284 285 291 291 303 316